Weather in Kelchiyur

Russia / Komi Republic     65°16′26″N   52°59′51″E
temp.,
°C
wind,
m/s
gust,
m/s
humid.,
%
clouds,
%
prec.,
mm/h
press.,
hPa
HPBL,
m
23 april, fri
fri2300:00+4s41086100 0.1 1015950
03:00+4s5128699 0.1 1014806
06:00+4ssw51195100 0.3 1014996
09:00+4sw4109497 0.6 1016956
12:00+7wsw4759100 0.2 10181599
15:00+6wsw4866100 0.3 10201457
18:00+5wsw2771100 0.0 1021320
21:00+3s11837 0.0 102310
24 april, sat
sat2400:00+2sse118923 0.0 102310
03:00+3ese258961 0.0 102396
06:00+5se268699 0.0 1023175
09:00+7se268194 0.0 1023215
12:00+13sse465254 0.0 10221417
15:00+13se465162 0.0 10221320
18:00+10se486371 0.0 1021537
21:00+7ese287994 0.0 1021177
25 april, sun
sun2500:00+6e2977100 0.0 1020227
03:00+6ese4117799 0.0 1019427
06:00+6ese41273100 0.0 1018733
09:00+9ese51158100 0.0 10171545
12:00+10ese5105594 0.1 10151686
15:00+10ese51057100 0.2 10131508
18:00+9ese51163100 0.1 10121318
21:00+7ese4117374 0.2 1011777
26 april, mon
mon2600:00+5e4108391 0.0 1009409
03:00+4e4118964 0.0 1008531
06:00+4ese4988100 0.0 1007745
09:00+5ese3788100 0.1 1006725
12:00+6ese2480100 0.2 1006705
15:00+8se2365100 0.4 1005907
18:00+7sw1274100 0.1 100492
21:00+4sw1187100 0.1 100410
27 april, tue
tue2700:00+3sw119295 0.0 100410
03:00+3sw119392 0.0 100410
06:00+4ssw128690 0.0 1004139
09:00+6ssw2277100 0.0 1004620
12:00+7s126791 0.1 1004835
15:00+8s2359100 0.3 10031055
18:00+7ssw1368100 0.4 1003500
21:00+5s2478100 0.6 1003178